Location: Santa Cristina
(46.5667°N, 11.7167°E)
Time: 16:46:11
(UTC+00:00)

Meteor 1-11 Rocket - Pass Details

Date: 21 April 2021
Orbit: 832 x 915 km, 81.2° (Epoch: 12 May)

Event Time Altitude Azimuth Distance (km) Brightness Sun altitude
Rises 00:09:17 0° 345° (NNW) 3,522 7.7 -30.2°
Reaches altitude 10° 00:11:46 10° 341° (NNW) 2,588 6.8 -30.0°
Enters shadow 00:16:39 51° 298° (WNW) 1,132 4.3 -29.8°
